Wind_Speed
20 20 20 21 21 21 22 23 24 24 24 24 23 23 23 22 23 23 23 24 26 29 32 35 38 40 42 44 45 46 48 50 51 51 53 53 53 52 51 50 49 48 46 45 44 43 41 40 37 36 35 33 32 32 32 32 29 26 24 23 22 18 16 15 11 9 10 9 5 5 6 5 6 9 9 15 14 14 21 24 25 25 25 26 26 27 29 30
21 21 21 22 22 22 23 24 26 26 27 27 27 26 25 25 25 25 26 26 26 28 31 34 37 40 42 44 46 47 47 49 51 52 54 54 53 53 52 51 51 49 48 47 46 45 42 41 39 38 37 35 34 33 33 33 30 27 26 25 22 18 17 14 11 8 9 12 10 7 6 3 5 10 9 14 14 14 20 21 23 23 24 25 25 27 28 30
22 23 23 23 24 24 25 26 27 28 29 29 29 29 29 28 28 28 28 28 28 29 31 33 36 39 42 44 46 48 48 49 50 53 55 54 54 54 54 53 52 51 50 49 48 45 43 43 42 40 39 37 35 34 33 33 32 29 28 27 24 21 18 13 10 9 10 12 10 7 7 6 5 10 9 13 15 16 19 20 21 21 22 24 24 26 27 29
23 24 25 25 26 27 27 28 29 30 31 32 32 32 32 31 31 31 31 31 31 31 32 33 36 39 42 44 46 48 49 49 50 53 56 55 55 55 55 55 54 53 52 50 48 47 46 46 45 42 40 38 36 35 34 33 33 32 31 31 26 22 20 14 12 13 13 12 10 8 9 9 7 9 8 12 14 14 16 18 19 19 21 23 23 25 26 29
25 26 27 27 28 29 30 31 31 32 33 34 35 35 35 35 34 34 33 33 34 34 34 35 36 39 42 44 46 48 50 50 51 53 55 56 56 56 56 56 56 55 53 51 49 49 49 48 46 44 42 40 38 37 35 34 35 33 32 33 27 22 21 18 16 16 15 12 11 9 9 8 9 9 8 11 11 10 13 15 16 17 19 21 22 24 26 28
26 27 28 29 31 32 32 33 34 35 35 36 37 37 38 38 38 37 37 36 36 36 37 37 38 39 41 44 47 49 49 51 53 55 55 56 57 57 57 57 57 57 55 53 51 50 50 50 48 46 44 41 40 39 37 36 35 33 32 31 27 24 23 22 20 18 16 14 12 11 10 9 10 10 7 9 9 9 12 12 13 15 18 19 20 22 25 27
28 29 30 31 32 33 34 35 36 36 37 37 38 39 40 40 41 41 40 40 39 39 39 40 40 41 42 44 46 49 49 51 55 55 56 56 56 58 58 58 58 58 57 55 53 51 51 51 49 47 45 43 41 41 39 37 35 33 33 31 28 26 26 25 24 19 16 15 13 13 14 12 11 9 6 7 8 9 11 9 10 13 16 18 20 21 23 25
29 29 30 32 33 35 36 37 37 38 39 40 40 40 41 42 43 43 44 43 43 42 42 42 43 43 44 44 47 49 49 52 55 56 57 56 56 58 59 59 59 59 58 56 55 53 53 52 51 49 47 45 43 42 41 38 36 34 32 31 28 26 27 27 25 21 18 17 17 16 16 15 13 10 7 8 7 7 8 8 9 12 14 16 19 20 21 23
29 30 31 33 35 37 38 39 40 41 42 43 43 43 44 44 45 46 47 46 46 46 45 45 45 46 46 46 47 48 48 53 56 57 58 57 57 58 59 60 60 59 59 57 57 55 54 54 52 51 49 45 45 44 43 40 36 34 31 30 28 24 27 29 27 23 21 20 20 19 18 17 15 11 8 8 5 3 6 7 8 10 12 14 17 19 19 21
30 31 33 35 37 39 40 41 42 43 44 45 46 47 47 48 48 49 50 50 49 49 49 48 48 48 48 48 49 46 48 53 55 58 59 58 59 59 59 60 61 61 60 59 58 57 56 55 54 53 51 48 47 46 45 42 38 36 32 28 28 25 25 28 27 23 21 21 20 20 20 19 16 11 7 5 3 2 4 4 6 8 10 12 15 17 18 18
32 33 35 36 38 40 42 43 44 46 47 48 49 49 50 50 51 52 52 53 53 52 52 52 51 50 50 51 49 46 50 53 55 58 60 59 60 60 60 60 61 61 61 60 59 59 58 57 56 55 52 51 50 48 48 45 41 40 35 27 27 28 27 28 27 23 22 21 20 20 19 18 16 11 8 6 6 5 3 3 4 6 8 10 12 15 16 16
33 35 37 39 41 43 45 46 48 49 50 51 52 52 52 52 52 53 54 55 55 55 55 55 55 53 53 52 49 49 53 53 54 58 60 60 61 61 61 60 61 62 62 61 60 61 60 58 58 56 54 53 53 50 50 48 42 39 36 31 29 30 30 29 28 25 25 23 20 18 16 15 14 11 10 8 9 9 6 7 4 4 6 8 9 12 14 14
35 37 39 41 43 46 48 50 51 52 53 54 55 54 54 53 53 52 53 54 56 58 58 58 58 57 55 52 51 54 55 53 54 57 59 61 62 62 63 62 62 62 62 62 61 62 62 60 60 58 55 55 55 53 51 49 44 39 35 33 34 33 30 30 31 29 29 28 22 19 18 15 14 14 11 9 12 12 10 10 7 4 4 6 6 8 12 12
37 39 41 44 46 49 51 53 54 55 56 57 56 56 56 55 54 54 53 54 55 58 60 61 60 60 58 55 55 56 56 56 56 57 58 61 62 63 64 63 63 63 63 63 63 64 64 63 62 60 57 56 57 55 53 51 47 43 38 35 34 35 33 31 33 33 33 31 26 23 22 17 15 15 13 11 13 13 13 12 8 6 4 4 5 6 8 10
39 41 44 47 49 52 54 55 56 57 58 58 58 58 57 56 56 55 55 55 55 57 60 62 63 63 62 59 58 58 57 58 58 57 58 60 62 64 64 64 64 64 64 64 64 65 65 66 65 63 60 58 57 57 55 53 49 46 43 38 33 32 36 36 36 35 34 33 31 28 25 20 15 15 16 16 15 16 16 14 10 8 6 4 4 5 5 8
40 43 46 50 53 55 57 58 59 59 60 60 60 59 58 57 56 56 56 56 56 57 60 62 64 65 64 63 61 60 60 59 59 59 59 59 62 64 65 66 66 66 65 64 64 65 66 67 65 64 63 60 59 58 57 54 52 48 44 42 38 32 35 39 38 37 35 35 35 32 29 24 19 17 18 21 21 21 20 15 11 10 8 6 4 5 4 5
42 46 49 52 55 58 59 60 61 62 63 63 63 61 59 57 56 56 56 57 58 58 60 62 65 67 67 66 65 63 61 60 61 61 60 60 61 64 66 67 67 67 67 66 64 65 67 67 67 67 66 62 60 60 59 57 54 51 46 45 44 39 37 38 37 38 36 35 36 34 32 28 24 20 18 21 25 25 21 16 13 12 10 8 5 5 5 2
44 48 52 55 58 60 62 63 64 65 66 66 64 61 59 55 54 53 54 56 58 59 61 63 65 68 68 68 67 65 64 64 63 63 62 62 62 64 66 67 68 68 68 67 65 64 66 69 70 69 66 64 62 61 61 60 57 54 46 46 48 41 38 38 37 38 36 33 34 34 34 32 29 24 20 20 25 26 21 18 16 14 12 9 7 6 6 3
46 50 54 57 60 63 64 66 68 69 68 66 63 60 56 52 49 49 51 54 57 60 62 64 66 68 69 69 70 69 68 66 65 65 64 64 63 64 66 68 69 70 69 69 66 65 67 70 71 69 67 67 65 64 63 61 60 56 46 46 50 42 37 39 38 40 40 34 33 34 33 32 31 28 24 21 21 23 21 19 17 15 13 11 8 7 7 6
48 53 56 60 62 64 67 69 70 70 68 65 61 56 50 45 43 43 46 50 55 60 63 65 67 68 70 72 73 72 71 69 67 66 66 66 65 65 66 68 70 71 71 70 68 66 67 70 71 71 71 70 69 67 65 63 62 61 53 48 50 43 38 41 40 41 42 35 33 34 32 31 29 28 25 22 21 20 19 19 18 16 15 13 10 8 8 7
50 55 58 62 64 66 68 70 70 69 66 62 56 49 42 37 35 36 39 44 50 57 62 66 68 70 72 74 74 74 73 71 70 69 68 68 68 67 67 68 69 72 72 71 69 67 67 68 71 74 74 73 71 68 67 66 63 63 60 53 52 46 38 40 42 42 40 35 34 33 30 29 28 28 28 25 24 22 19 19 18 18 18 15 12 10 9 8
52 56 60 63 65 67 69 70 70 67 64 59 50 41 35 31 29 30 33 37 43 51 59 65 69 72 74 75 76 76 75 74 73 73 71 70 70 69 68 67 69 72 73 72 70 68 68 69 72 76 76 73 71 70 69 68 64 64 65 59 54 52 43 36 36 38 40 37 37 36 32 31 29 30 33 30 26 23 21 21 21 20 19 17 14 11 10 10
53 58 62 64 66 68 69 70 69 66 62 54 44 36 30 27 26 26 28 32 37 44 52 61 68 72 75 76 77 78 78 77 77 75 73 72 71 70 69 68 70 72 73 72 71 71 71 71 73 76 76 74 74 74 71 69 68 67 67 64 58 54 49 39 29 31 39 39 38 39 36 35 34 34 36 33 30 28 25 25 25 22 20 18 16 13 12 11
55 59 62 64 66 68 69 69 67 64 59 50 40 32 28 25 23 23 23 27 32 38 45 54 63 70 75 77 79 80 80 79 79 77 76 74 72 71 71 71 71 72 72 73 73 73 73 74 76 75 75 77 76 74 72 70 71 70 67 67 64 57 53 48 38 33 39 40 40 42 38 35 38 38 36 36 36 34 29 28 28 25 22 19 16 15 14 13
56 60 62 64 66 68 69 69 67 64 57 47 37 31 26 22 21 20 20 23 28 33 40 48 56 66 73 78 80 81 81 81 80 79 77 75 74 74 74 72 72 71 72 75 76 75 75 76 74 72 75 78 77 74 74 73 73 71 69 69 69 64 56 53 51 45 42 41 42 45 39 34 38 40 39 38 36 33 29 29 28 26 24 20 16 17 16 15
57 60 62 64 66 68 70 69 68 64 56 45 36 30 26 21 19 18 18 20 24 28 35 42 50 60 69 76 80 81 82 83 81 80 79 78 77 75 73 72 72 72 74 76 77 77 77 75 72 73 76 78 77 76 77 76 75 74 74 71 68 68 61 54 53 52 47 44 45 47 41 36 36 35 36 38 35 32 29 29 30 28 25 22 19 18 18 17
57 61 62 64 66 68 69 69 68 63 54 43 34 30 26 22 18 15 15 17 20 24 30 37 45 54 64 73 79 82 83 83 83 82 82 81 79 77 76 76 75 74 74 74 76 78 76 72 72 75 76 75 78 79 78 77 78 76 74 71 68 69 67 59 55 52 50 48 46 46 43 39 38 33 31 36 37 34 32 31 33 31 26 25 22 20 18 18
58 61 62 64 66 68 69 69 68 62 53 42 33 28 25 21 18 14 12 13 16 21 26 32 40 48 57 67 76 80 82 83 84 84 83 82 81 80 79 77 75 74 74 74 77 78 74 73 76 77 76 75 77 80 80 79 79 77 72 70 69 68 68 66 61 54 51 50 46 46 46 42 41 37 31 34 37 36 36 35 36 33 28 26 25 22 20 19
58 60 62 64 66 68 69 69 67 62 51 40 32 28 24 21 18 14 11 10 12 17 22 28 35 42 51 61 70 77 82 84 84 83 83 83 82 81 79 77 75 74 75 76 78 77 75 77 79 78 77 77 78 80 81 81 79 75 73 73 71 69 69 70 67 60 54 51 48 47 49 46 44 40 35 36 38 38 38 39 38 33 27 26 25 24 23 22
58 60 62 64 66 68 70 69 67 61 50 39 31 27 23 19 17 14 10 8 9 13 19 25 31 37 46 56 65 74 79 82 83 83 83 83 82 82 80 78 76 75 77 78 78 75 75 77 76 76 77 77 78 79 80 81 78 74 76 76 72 71 71 70 70 66 59 55 52 50 50 50 49 42 36 38 41 41 41 41 41 34 28 27 26 25 26 24
58 59 62 64 66 69 70 69 68 61 50 38 30 26 23 19 15 13 9 6 8 11 16 22 28 34 41 50 60 69 75 79 81 84 84 84 84 82 81 80 78 78 80 79 77 72 72 75 76 77 78 77 77 75 76 79 76 75 78 78 75 73 72 70 71 71 65 59 56 55 51 47 50 46 37 39 42 41 42 42 41 37 32 30 28 27 27 26
57 59 61 63 66 69 70 70 68 62 50 37 28 24 21 18 14 11 8 5 7 10 15 20 25 31 38 45 54 63 71 76 80 83 84 85 84 83 83 83 82 83 83 80 76 73 75 79 80 80 79 78 76 74 76 79 78 78 80 79 77 75 73 73 72 72 71 65 58 58 51 41 45 50 43 41 42 40 40 40 40 40 37 34 32 30 29 28
56 58 61 63 66 69 70 70 69 63 51 38 27 21 19 16 13 11 8 5 4 7 12 16 22 28 34 41 50 58 66 74 79 82 83 84 84 85 85 85 84 83 81 80 78 77 79 81 80 80 79 78 78 78 80 80 79 81 81 79 79 77 75 74 73 72 74 72 63 60 56 43 42 50 49 44 43 39 38 39 40 40 39 37 36 34 32 30
56 58 60 63 66 69 71 71 70 64 53 40 28 20 17 14 13 11 9 6 3 4 8 13 18 24 31 37 45 53 62 70 76 80 82 83 85 85 85 85 83 82 81 80 80 80 81 81 80 80 79 79 80 81 81 79 79 81 81 80 80 79 77 76 75 76 77 77 71 66 65 55 46 49 52 49 46 41 38 38 39 38 37 37 37 37 36 34
55 58 60 63 65 68 71 71 70 66 55 42 30 22 16 13 11 9 8 6 3 2 3 8 13 19 26 33 40 48 57 65 71 76 79 83 85 86 87 86 85 86 85 83 82 82 81 83 83 82 82 82 82 83 81 78 78 81 82 81 81 80 80 79 78 78 78 79 77 71 68 64 56 52 50 46 45 47 43 37 37 37 37 35 35 37 40 40
55 57 59 62 65 68 71 72 71 67 58 44 31 23 17 13 9 8 7 5 3 2 2 5 9 14 21 28 36 43 52 60 66 72 77 82 85 87 88 88 88 88 86 84 84 83 83 84 81 80 81 81 82 82 81 79 80 81 80 80 82 82 83 82 81 80 79 79 79 75 70 69 64 58 53 44 42 49 50 43 39 40 39 37 37 39 42 43
55 57 59 62 64 67 70 72 71 69 60 46 33 23 18 14 10 8 6 5 4 3 4 5 7 11 16 23 31 39 47 55 62 68 75 80 84 86 86 86 85 84 83 84 84 82 84 83 79 79 81 81 83 84 82 83 82 79 79 81 85 85 83 83 81 80 80 79 81 79 74 73 71 65 61 54 47 49 51 47 43 43 43 41 41 42 41 41
54 57 59 61 64 67 69 71 72 70 63 50 35 25 19 16 12 9 7 6 6 5 5 5 6 8 13 19 26 34 43 51 59 66 73 78 81 84 85 84 84 84 84 85 84 82 83 82 78 80 82 83 85 85 83 84 82 79 80 82 85 85 83 83 82 81 82 80 82 82 77 76 78 74 67 60 54 54 54 50 46 45 47 45 44 45 42 41
54 56 59 61 64 66 69 71 71 71 66 53 39 27 20 17 14 11 9 8 8 7 6 6 6 8 10 14 21 30 38 47 56 63 70 76 80 83 84 84 85 86 86 86 85 83 83 82 79 80 83 84 85 85 84 85 84 82 80 78 80 84 84 84 84 84 84 82 83 84 80 79 82 81 74 63 58 60 62 59 53 50 49 45 44 45 43 41
53 56 58 61 63 66 68 70 71 72 67 57 42 30 22 19 16 13 11 10 10 10 9 9 9 8 9 12 18 25 33 43 52 61 68 74 78 81 82 83 85 86 86 85 84 83 84 84 82 81 83 83 83 85 85 86 85 84 81 80 82 84 84 84 84 84 85 84 84 85 85 84 82 82 81 74 68 65 64 64 61 56 54 49 45 43 42 43
53 55 58 60 63 65 68 70 71 72 69 61 47 32 24 21 17 15 13 11 11 11 12 12 12 11 11 13 15 19 28 38 47 56 65 71 76 79 80 82 84 84 85 85 85 85 85 85 83 82 82 82 84 86 87 88 88 86 85 84 83 83 85 86 86 86 86 85 85 86 87 86 84 84 84 80 78 74 69 65 60 55 55 55 52 46 43 44
52 55 57 60 62 65 67 69 71 72 71 64 51 36 26 22 20 17 15 13 12 12 12 13 13 14 15 15 15 18 25 33 41 51 61 67 72 77 79 81 83 84 84 86 86 86 85 85 84 82 82 84 87 88 89 89 88 86 86 85 83 83 85 86 87 88 87 87 88 88 88 85 84 86 86 82 81 80 76 71 64 56 55 59 60 55 48 45
52 54 57 59 61 64 66 69 70 71 71 67 57 41 28 23 21 19 17 15 14 14 14 14 15 15 17 17 18 20 24 29 36 45 54 61 67 73 77 79 81 83 84 85 85 84 85 85 84 82 84 86 87 87 86 86 85 85 86 85 84 84 84 86 87 87 89 90 90 89 89 87 85 86 87 86 84 84 81 78 73 66 63 61 61 63 60 54
52 54 56 58 61 63 65 68 70 71 71 69 61 47 32 23 21 20 18 16 16 15 15 16 16 17 17 18 20 23 26 29 33 39 46 54 62 70 74 77 80 82 84 85 84 85 86 86 85 84 86 86 85 84 84 84 85 86 86 85 86 86 87 87 87 88 90 91 90 90 90 89 87 87 88 88 87 86 85 82 79 75 72 67 61 61 65 64
51 53 56 57 59 62 64 66 69 70 71 70 65 53 38 26 21 20 19 17 17 17 16 16 17 18 18 19 21 23 27 30 32 35 40 48 57 65 72 76 79 81 83 84 84 86 86 85 85 86 86 86 84 84 86 86 86 87 87 89 90 89 87 86 85 87 89 88 88 90 90 88 88 88 88 87 87 86 85 85 83 80 78 77 71 66 67 66
51 53 55 57 59 61 63 65 68 70 71 70 68 59 44 30 22 19 19 18 17 17 18 17 17 18 19 19 21 23 26 29 31 33 37 43 52 60 68 74 78 81 83 84 84 85 85 85 85 85 85 86 85 85 87 88 88 89 91 92 90 87 86 86 86 86 86 86 87 89 89 88 89 90 87 85 85 86 85 85 85 83 81 81 80 76 73 70
50 53 54 56 58 60 63 65 67 69 70 70 69 63 51 36 24 19 18 18 17 18 18 18 17 17 18 19 21 23 26 28 31 33 37 42 48 55 63 70 76 80 82 83 84 84 84 84 85 84 85 85 85 85 86 88 89 91 93 92 88 88 88 88 87 86 86 87 88 90 90 89 89 89 87 85 84 85 86 86 85 86 84 83 82 80 78 75
50 52 54 56 58 60 62 64 66 68 69 70 69 66 57 42 28 20 18 18 18 18 18 18 18 17 18 19 21 23 25 28 31 34 37 41 46 53 60 66 72 78 81 83 83 83 84 84 85 85 84 84 85 85 85 86 87 88 90 89 88 90 91 89 89 89 88 88 88 89 91 91 90 89 87 86 85 84 86 88 86 86 87 86 85 82 80 78
49 51 53 55 57 59 61 63 65 67 68 69 69 67 61 48 33 23 19 18 18 18 18 18 18 17 18 19 20 22 24 26 29 33 37 40 44 49 55 62 68 74 79 82 82 83 84 85 85 85 85 84 85 85 84 84 86 87 87 87 89 91 92 91 92 91 89 87 87 89 90 90 90 88 83 84 86 84 86 89 89 88 88 88 88 86 84 83
49 51 53 55 57 58 60 62 64 66 68 69 69 68 64 54 39 27 20 18 18 19 18 18 18 18 18 19 19 20 21 24 27 31 36 40 41 45 52 58 65 71 76 80 82 83 85 86 86 86 86 85 85 85 85 84 85 86 87 88 90 92 93 94 94 92 89 89 89 90 90 88 87 87 84 85 86 85 86 89 91 90 89 88 88 89 88 86
49 51 53 55 56 58 60 61 63 65 67 68 69 69 66 59 45 31 23 20 19 19 18 18 18 18 18 18 17 18 19 21 24 28 34 39 42 45 50 56 62 68 72 77 81 84 86 86 86 87 87 87 87 87 86 85 86 87 87 89 92 93 93 95 95 93 92 93 92 91 90 88 86 88 89 89 89 88 88 89 90 91 90 89 88 89 89 89
48 50 53 54 56 57 59 61 63 64 66 67 68 69 67 62 51 37 26 21 20 19 18 17 17 17 18 18 16 16 17 19 21 25 30 37 43 47 49 52 58 63 67 73 78 82 85 87 87 88 89 89 89 88 87 86 86 88 88 90 92 93 92 92 92 93 94 94 93 90 88 88 88 88 89 91 92 92 90 90 90 90 90 90 90 89 89 90
Wind_Direction
297 296 295 293 291 290 289 289 289 288 287 285 281 277 273 269 265 258 249 241 237 234 229 226 224 223 222 221 219 218 217 217 216 216 216 215 214 213 212 213 214 213 211 209 208 206 206 205 202 198 194 193 191 191 193 193 191 188 189 194 202 204 200 214 213 201 203 189 208 229 238 272 318 311 331 353 359 27 23 14 14 18 26 32 35 35 34 38
296 295 294 292 290 288 287 287 287 286 286 284 282 279 275 270 267 263 257 248 240 236 234 230 226 224 224 222 220 218 218 217 217 216 216 215 214 214 212 212 213 213 212 210 208 206 205 205 203 200 196 194 192 191 193 193 194 193 195 197 200 208 205 207 203 204 206 199 219 233 233 249 323 316 334 350 351 10 9 7 11 16 25 32 35 36 35 36
295 295 294 293 291 289 288 287 286 286 285 284 282 280 277 272 268 264 261 256 247 240 236 233 229 226 224 223 222 220 218 217 217 217 216 215 214 214 212 212 212 213 213 211 209 207 206 206 204 202 198 195 193 191 192 194 195 196 200 199 197 206 207 199 196 209 210 212 232 234 227 224 276 308 335 343 339 354 360 4 11 15 25 34 36 37 37 36
293 293 293 293 292 290 288 287 286 285 285 284 283 281 279 275 271 266 262 259 254 247 239 235 233 229 226 224 223 222 219 217 218 218 217 215 214 214 213 212 211 212 213 212 210 207 206 206 205 203 199 196 193 192 191 193 198 199 201 201 201 204 202 192 193 211 217 224 231 221 233 235 252 289 329 335 329 347 359 7 12 14 26 36 37 38 38 37
291 291 291 292 291 290 289 287 286 284 283 283 282 281 280 277 274 269 264 260 257 252 245 238 235 232 229 225 223 223 221 219 219 218 217 216 214 214 214 213 211 211 212 213 211 208 206 206 205 203 201 197 194 193 191 193 199 201 203 204 205 204 197 190 193 208 216 221 222 215 232 240 247 268 314 324 318 337 351 8 14 13 27 38 38 39 39 39
292 291 291 291 291 291 290 289 287 285 283 281 280 279 278 277 274 271 267 262 257 254 250 244 238 234 231 228 225 223 222 222 220 217 216 216 215 214 214 213 212 211 211 211 212 210 207 207 206 204 202 198 195 193 191 195 199 201 205 206 206 203 195 193 199 209 214 216 220 218 226 237 246 259 300 316 312 326 337 2 18 16 27 39 40 40 41 40
293 292 291 292 292 292 292 290 289 287 284 281 279 277 276 274 273 271 268 265 260 255 252 248 242 236 233 230 227 224 222 223 221 218 216 216 215 215 214 213 212 212 210 210 211 210 209 207 206 205 203 199 197 195 193 194 198 201 206 207 207 202 197 199 205 211 213 214 217 224 234 242 254 261 271 296 306 318 330 2 27 21 25 38 42 42 42 41
294 292 292 293 293 294 293 292 290 288 285 282 279 277 274 272 270 269 267 265 262 257 253 249 245 240 235 231 229 226 224 224 222 220 217 215 215 216 215 213 212 212 211 209 209 210 210 208 206 206 204 201 199 196 194 194 198 202 203 208 209 201 200 203 208 214 217 217 218 225 236 241 250 256 257 281 299 309 329 8 32 24 23 35 43 44 43 42
294 293 293 295 296 296 295 293 291 289 286 284 281 278 275 272 269 267 265 263 261 259 255 250 246 243 238 233 230 227 226 225 222 221 219 216 215 216 216 214 212 211 210 209 209 209 210 209 208 207 204 202 201 198 194 193 200 203 202 209 210 199 200 204 208 215 220 221 223 228 233 235 239 242 252 275 278 290 326 4 24 20 21 30 41 45 44 43
295 295 296 297 297 296 295 293 291 288 285 283 280 277 275 272 269 266 264 261 259 257 255 252 247 243 240 236 231 228 228 226 223 222 220 217 216 215 215 215 213 211 209 209 209 208 209 209 208 208 204 203 202 199 195 193 198 202 200 204 208 201 198 203 206 212 220 220 223 229 231 229 229 230 236 246 213 234 315 354 11 12 18 24 38 46 46 45
298 298 298 298 297 296 295 293 291 289 286 284 281 278 274 271 267 264 262 260 257 254 252 251 248 244 240 237 232 228 229 227 225 223 221 219 218 216 215 215 214 212 209 209 209 208 208 208 209 208 206 205 203 200 197 195 197 201 200 198 205 206 203 202 202 207 216 216 216 220 223 219 217 220 219 224 209 198 264 302 342 2 13 17 32 45 48 46
300 299 299 299 299 299 298 297 295 293 291 288 285 282 278 273 268 264 260 257 255 252 250 248 247 245 240 236 232 230 229 227 226 224 222 220 219 217 215 214 215 213 210 208 209 209 208 208 208 208 207 206 205 201 199 198 197 199 201 202 205 208 208 203 198 203 213 213 212 211 214 211 211 220 215 228 228 206 239 271 289 338 1 7 21 41 49 48
301 301 302 303 303 303 302 300 299 296 294 292 289 286 282 278 273 267 261 255 252 249 247 245 244 243 241 236 232 231 229 226 226 225 223 221 220 218 215 214 214 214 211 208 208 209 209 208 207 207 207 207 205 202 200 199 197 195 198 205 208 209 209 206 200 203 211 215 214 211 218 218 219 227 211 225 240 223 242 260 263 294 333 353 2 32 48 50
302 304 305 306 307 306 305 303 301 299 297 294 292 289 285 281 276 270 263 257 251 246 244 243 241 240 239 236 232 230 228 226 225 224 224 222 221 219 217 215 213 213 212 209 207 208 208 208 207 206 206 206 205 203 201 199 198 193 194 203 208 208 210 209 206 208 213 221 222 216 224 227 224 225 207 215 236 228 240 250 252 269 288 329 339 9 42 51
305 307 309 310 309 309 307 305 304 302 300 298 295 292 288 283 277 271 265 258 251 245 241 240 238 237 236 234 232 230 227 226 224 223 223 222 221 220 218 216 213 212 212 210 208 207 208 208 207 206 206 206 205 204 202 200 198 194 193 199 202 205 211 210 210 210 212 220 224 220 225 230 224 219 209 209 213 217 233 242 246 258 262 287 312 333 23 51
307 310 311 312 312 311 310 308 307 305 304 302 299 295 290 284 278 271 264 257 251 245 239 237 236 235 234 232 231 229 227 225 224 222 221 222 222 221 219 217 214 212 212 211 209 207 208 208 208 207 206 206 205 204 202 200 199 195 193 199 199 202 212 212 212 213 213 218 223 220 222 226 221 215 217 214 210 218 231 238 245 252 252 260 279 297 337 44
309 312 314 314 315 314 313 312 311 310 308 306 302 298 292 286 278 270 262 255 249 243 238 234 233 232 231 230 229 227 226 225 224 222 220 220 220 221 220 218 215 213 212 211 209 208 208 208 208 208 206 206 205 204 203 201 200 196 194 200 198 199 209 212 215 215 213 217 221 220 221 225 224 220 225 223 218 221 228 235 244 250 248 248 256 271 293 4
311 315 316 317 317 317 316 315 315 313 311 308 305 300 294 287 278 268 259 252 246 241 236 232 230 229 228 228 228 226 224 223 223 221 219 218 219 220 220 219 216 214 212 211 209 209 208 207 208 208 206 206 205 204 203 202 200 196 197 202 198 198 204 207 214 215 212 217 219 221 222 225 228 228 230 231 223 220 224 233 242 248 243 240 245 251 267 290
314 317 319 320 320 320 319 318 317 316 314 311 308 303 296 288 277 266 256 248 242 238 233 230 227 226 225 225 225 224 223 222 221 221 219 217 217 218 219 219 217 215 213 211 209 209 209 208 208 207 206 206 206 204 203 203 201 197 199 202 199 200 203 204 211 215 215 220 222 222 223 226 230 229 229 232 228 221 223 232 239 242 236 232 238 240 249 264
317 320 322 323 323 323 321 320 319 318 316 314 311 306 298 288 276 264 253 244 238 233 230 227 224 222 222 222 222 222 221 220 220 220 220 218 216 216 217 218 218 216 213 212 210 209 210 209 208 207 206 206 206 205 203 203 202 199 200 201 199 202 205 204 209 214 216 219 223 224 224 227 228 226 226 228 229 228 228 231 235 234 228 226 230 232 238 249
320 323 325 326 325 324 323 322 322 321 320 318 315 308 299 288 275 262 251 242 235 230 226 224 222 220 219 219 220 220 220 219 218 218 219 218 216 215 215 217 217 217 214 212 211 209 210 210 209 207 206 205 205 205 204 203 202 201 202 201 199 202 203 204 208 213 213 212 217 219 221 222 219 218 223 228 233 235 232 229 229 229 225 222 222 226 232 237
324 327 328 327 327 326 325 325 325 325 324 322 318 311 302 291 277 263 250 241 234 228 224 221 219 218 217 217 217 218 218 217 217 217 217 218 217 214 214 215 217 217 215 213 211 210 209 210 210 209 206 205 204 205 205 204 202 203 203 200 199 200 198 199 205 211 211 210 212 212 212 213 211 214 220 224 230 232 231 230 229 227 225 221 217 220 229 232
327 329 329 329 328 327 328 329 329 329 329 326 322 316 308 297 282 268 253 242 234 228 224 220 217 216 215 215 215 215 216 216 216 216 216 217 216 214 213 213 215 216 215 214 212 211 209 209 211 210 206 205 204 205 205 203 203 204 203 201 200 198 195 192 195 204 207 208 207 205 207 209 209 214 219 219 225 231 235 236 233 230 225 221 217 219 226 230
329 330 331 331 330 330 331 333 333 334 333 331 326 321 314 303 288 273 258 245 235 228 223 220 216 215 213 213 213 213 214 214 214 215 215 216 216 215 213 212 213 214 215 214 213 212 210 210 211 209 207 206 205 205 204 204 205 205 203 202 201 199 196 194 194 198 202 205 204 201 204 207 208 214 220 221 227 233 234 233 232 230 225 222 221 220 222 229
331 332 332 332 332 333 335 337 338 338 337 334 330 326 320 308 292 277 260 246 236 228 223 219 216 214 212 212 212 212 212 212 213 213 214 214 215 216 214 212 212 213 214 214 213 212 211 211 210 209 209 207 205 204 204 204 206 206 205 203 202 202 200 198 201 203 203 205 203 199 201 202 205 214 221 224 228 230 228 227 230 228 223 223 224 221 220 229
332 333 334 334 335 337 340 341 342 342 340 337 333 330 324 315 300 283 264 247 236 228 222 218 215 213 211 211 211 211 211 211 211 212 213 213 214 215 215 213 212 212 213 214 214 213 212 211 209 210 210 208 205 205 205 205 205 206 206 204 203 202 202 200 202 205 206 207 204 202 203 201 201 210 217 219 222 220 219 223 231 231 223 223 225 223 221 227
334 335 336 337 339 342 344 345 345 345 342 339 335 332 328 322 310 292 271 250 236 227 221 216 214 212 210 210 209 210 210 210 210 210 211 212 213 214 214 213 212 212 212 213 214 214 212 210 210 211 211 209 207 206 205 205 206 207 207 206 204 203 203 202 202 204 205 207 205 205 207 204 201 205 209 210 212 214 214 219 231 234 225 221 223 223 224 228
336 337 338 340 342 345 347 347 348 347 343 340 337 334 330 327 318 304 280 255 236 226 220 216 214 212 210 209 209 209 209 209 210 210 210 211 212 213 214 213 211 211 212 212 214 213 211 210 212 211 210 209 209 207 206 207 207 207 207 207 205 204 204 204 204 205 205 205 203 204 206 203 202 206 206 207 209 213 213 216 230 236 226 221 222 223 228 234
337 339 340 342 344 347 349 350 350 348 345 340 337 335 333 330 324 313 292 261 237 224 218 215 213 211 210 208 208 208 208 208 209 209 210 210 211 212 213 213 212 211 212 213 213 212 210 211 212 211 209 208 209 208 206 207 207 206 207 207 206 204 204 205 205 206 206 204 201 203 203 201 203 207 205 205 209 211 210 215 227 234 228 224 225 227 232 237
339 341 343 344 347 350 351 352 352 350 346 340 336 335 335 335 329 320 305 270 240 224 216 213 212 211 210 208 207 207 207 207 207 208 209 210 211 212 212 213 212 212 213 213 212 211 211 213 213 212 211 210 210 208 207 208 206 205 208 208 206 205 205 205 204 205 207 205 203 204 203 202 206 209 207 204 205 206 205 211 220 225 225 227 229 230 233 237
340 343 344 346 349 352 353 354 354 352 347 341 336 334 335 337 333 325 314 278 240 223 215 212 210 210 210 208 207 206 206 206 207 207 208 208 209 210 211 212 211 211 213 213 211 209 211 213 213 212 212 211 211 209 209 209 206 206 209 208 207 206 205 205 204 205 207 206 205 205 205 207 209 209 207 203 200 201 202 206 212 215 217 222 226 229 232 236
342 344 346 348 351 354 355 356 355 354 349 342 336 332 332 335 336 331 322 294 248 229 219 213 210 210 209 208 207 206 205 205 205 206 207 208 208 209 210 211 211 211 212 211 208 206 209 212 211 211 211 211 210 209 210 209 205 207 209 208 207 207 206 206 204 204 206 206 205 205 207 211 212 208 206 205 205 205 206 207 209 212 214 215 218 223 228 234
343 346 348 350 353 355 356 357 357 355 350 343 336 330 329 330 336 340 335 322 280 240 226 217 213 212 210 208 207 206 205 205 205 205 206 207 208 208 210 211 211 212 212 210 207 206 209 211 210 211 211 210 210 209 210 208 205 207 208 208 208 207 206 207 205 204 206 206 204 204 205 208 211 207 202 205 210 211 212 212 209 210 212 212 215 219 222 229
344 347 349 352 354 356 358 358 358 356 352 345 338 331 328 327 333 340 339 337 324 265 235 223 217 214 211 209 207 207 206 205 205 205 206 206 207 208 209 210 211 212 212 210 208 208 209 209 209 210 210 210 210 210 210 208 206 208 208 208 209 208 207 207 206 205 206 207 205 204 205 206 208 203 199 203 210 212 214 215 212 210 213 216 218 221 225 229
345 347 350 353 355 357 358 359 359 358 354 347 339 332 329 328 328 332 332 332 329 302 250 230 221 216 214 210 208 208 207 206 205 205 206 206 207 207 208 209 209 210 210 210 209 209 210 210 208 209 209 209 210 210 210 208 207 208 207 208 209 209 208 207 207 206 206 207 206 205 206 207 206 201 197 201 209 213 215 213 211 211 214 216 215 221 226 230
346 348 351 354 356 357 359 360 0 359 356 350 340 331 328 327 322 318 315 311 302 272 244 235 223 218 215 211 208 208 207 206 206 206 206 207 207 208 209 209 210 211 210 209 209 209 210 210 209 209 210 210 211 211 210 208 208 208 207 207 209 210 209 208 208 207 207 208 207 207 207 209 209 206 201 201 204 211 215 212 207 210 214 213 210 219 227 229
347 349 351 354 356 358 360 0 1 0 358 353 343 332 325 319 313 305 294 280 267 256 248 238 223 218 215 211 209 207 207 207 206 207 207 207 208 208 209 210 211 212 211 211 210 209 211 210 207 208 210 210 212 211 210 209 209 208 207 207 209 209 210 210 209 209 208 208 208 209 209 210 211 210 209 209 208 208 210 210 205 207 213 212 210 216 225 227
347 349 352 355 357 358 360 1 1 1 359 355 346 333 322 314 306 297 285 267 249 242 247 244 230 221 214 210 208 207 207 207 207 208 209 208 208 208 209 209 211 212 212 212 211 210 212 211 208 209 210 210 212 211 210 211 209 208 208 209 209 209 209 210 210 210 210 209 210 210 211 211 212 212 212 214 216 215 212 211 207 204 208 212 212 215 219 223
348 350 352 355 357 358 360 1 2 2 1 357 349 336 322 313 304 292 280 268 252 236 229 233 233 228 215 209 208 207 207 208 209 209 210 209 209 208 208 208 210 211 212 213 212 210 212 211 208 210 211 211 212 211 211 212 210 208 209 209 211 211 210 211 211 211 211 211 211 211 212 213 213 214 215 214 216 219 219 219 215 208 206 209 213 216 217 220
348 350 353 355 356 358 359 1 2 3 2 359 352 339 324 313 304 292 278 266 257 245 233 226 226 226 219 214 209 207 209 210 210 211 211 210 210 209 208 209 210 212 212 213 213 211 212 211 209 210 211 211 212 212 212 212 211 209 208 208 210 210 210 211 212 213 212 212 212 212 214 215 213 215 218 217 215 218 220 220 219 216 213 213 215 218 221 223
348 350 353 355 356 357 359 1 2 3 2 0 355 343 326 314 306 296 283 268 258 250 242 235 228 224 223 220 213 211 214 213 212 213 212 211 211 209 209 209 210 212 212 213 213 212 212 212 210 211 212 211 212 213 212 213 212 209 208 209 210 210 210 211 211 213 213 213 214 214 215 216 215 215 217 219 218 218 218 218 217 220 221 218 215 215 218 221
348 350 352 354 356 356 358 0 2 3 3 1 357 347 330 316 306 299 289 277 267 259 252 246 238 230 227 222 217 221 223 218 214 215 214 212 212 210 209 210 210 212 212 213 214 213 213 213 211 211 212 212 212 212 213 213 212 211 210 210 210 211 211 211 211 212 213 213 214 215 215 216 217 217 218 219 220 220 219 218 215 217 222 222 218 214 213 213
348 350 352 354 355 356 357 359 1 2 3 2 360 353 337 319 307 301 293 284 276 269 262 258 251 243 236 228 224 229 231 224 218 217 216 213 213 212 211 210 211 212 213 214 214 214 214 214 212 212 213 214 213 213 214 214 214 213 213 212 211 212 212 213 212 213 214 214 214 215 216 216 217 218 219 220 222 221 220 219 217 216 220 224 222 220 217 215
348 350 352 353 354 355 357 358 0 2 2 2 1 356 345 325 309 301 294 287 280 273 267 263 258 253 246 238 232 232 235 232 224 218 217 215 214 213 211 211 212 213 214 215 214 215 215 215 214 213 214 215 214 213 214 215 214 215 214 213 212 212 213 213 213 213 215 215 215 216 217 217 218 219 220 220 222 222 222 221 219 217 219 222 222 221 220 219
347 349 351 352 353 354 356 358 359 1 2 2 2 359 351 334 315 303 294 287 281 275 270 264 260 256 251 246 240 237 237 237 230 221 218 216 214 213 212 211 212 213 214 215 215 215 216 215 215 215 215 216 214 213 214 214 214 215 215 214 213 213 213 214 214 215 216 216 217 218 218 218 219 220 221 222 223 223 224 223 222 220 220 221 222 222 219 218
346 348 350 351 352 353 355 357 358 0 1 2 1 0 355 343 324 308 296 287 282 279 274 268 262 258 255 250 246 242 239 238 234 226 221 217 215 214 213 212 212 212 214 215 216 216 217 217 217 217 217 217 215 214 215 214 213 214 215 215 214 214 215 215 216 216 216 216 218 220 220 220 220 222 222 223 224 225 225 225 224 222 221 222 222 222 221 219
345 347 349 350 351 352 354 356 358 359 0 1 1 0 357 348 332 314 300 290 283 280 278 273 266 261 258 254 250 248 244 240 236 230 224 220 216 215 213 213 213 213 213 215 216 216 217 218 218 218 218 218 217 216 217 217 215 215 216 215 214 214 215 215 216 217 216 216 217 218 220 219 220 222 222 223 225 227 226 226 226 225 224 223 224 223 222 222
343 346 347 349 350 351 353 355 357 358 359 0 0 360 358 352 339 321 305 293 285 281 279 276 271 264 260 257 254 252 249 243 238 232 227 222 218 215 214 213 213 213 213 214 215 216 217 218 219 219 219 219 218 218 218 219 219 218 218 217 216 216 216 215 216 217 217 217 217 218 219 220 220 222 223 223 225 227 228 227 227 227 226 225 225 224 223 222
341 344 346 348 349 350 351 353 355 357 358 359 360 360 358 354 345 328 310 297 288 283 281 278 273 269 264 260 259 258 255 248 240 233 229 225 220 217 215 213 213 214 214 214 215 215 217 217 218 219 219 219 219 219 218 220 221 220 220 219 218 218 217 216 217 217 218 218 219 219 220 220 220 221 222 223 223 225 228 228 227 227 227 226 226 226 225 224
340 343 345 347 348 349 350 352 354 356 357 358 359 359 358 355 348 334 316 301 290 285 283 279 275 271 267 265 266 267 263 254 244 234 228 225 220 217 216 214 213 213 214 214 214 215 216 217 217 219 220 219 219 219 219 219 221 221 220 220 221 220 219 218 218 218 218 218 220 220 220 220 221 221 222 224 224 224 227 229 228 228 227 227 227 227 227 226
338 341 343 346 347 348 349 350 353 354 356 357 358 358 358 356 351 339 321 305 295 289 285 280 275 272 269 267 268 273 271 261 249 237 228 223 219 216 216 215 214 213 214 214 214 215 215 216 217 218 219 220 219 219 218 218 220 222 221 221 221 221 221 221 220 219 218 219 220 221 221 221 221 220 222 225 226 225 226 228 229 229 228 228 228 228 229 228
337 339 341 344 346 346 347 349 351 353 355 356 357 357 357 356 352 343 328 312 302 295 288 281 276 272 271 270 271 276 277 267 253 241 231 224 219 216 215 216 215 213 214 215 215 216 216 216 216 217 219 219 219 219 219 218 220 221 221 221 222 222 222 222 222 221 221 220 221 222 223 223 223 221 222 225 226 226 226 227 230 230 230 229 229 229 229 230
Height
10938 10938 10937 10936 10936 10935 10934 10933 10933 10932 10932 10932 10932 10933 10933 10933 10933 10933 10933 10933 10934 10934 10935 10936 10938 10940 10941 10943 10945 10948 10951 10954 10956 10959 10961 10965 10970 10974 10978 10982 10985 10989 10992 10996 10999 11003 11006 11009 11013 11015 11018 11020 11023 11025 11027 11030 11033 11035 11036 11037 11037 11038 11039 11039 11038 11040 11042 11042 11042 11043 11044 11045 11044 11043 11041 11040 11039 11037 11034 11033 11031 11029 11027 11024 11021 11019 11016 11013
10936 10935 10935 10934 10933 10933 10932 10931 10930 10930 10929 10929 10929 10929 10930 10930 10930 10930 10930 10931 10931 10931 10932 10933 10934 10936 10937 10939 10941 10944 10947 10950 10953 10954 10957 10962 10966 10970 10974 10978 10982 10986 10989 10992 10995 11000 11004 11007 11010 11013 11016 11018 11021 11024 11027 11029 11032 11034 11034 11035 11037 11038 11038 11038 11039 11041 11042 11042 11042 11043 11044 11044 11044 11043 11042 11041 11040 11037 11035 11034 11032 11030 11028 11026 11023 11021 11018 11015
10933 10933 10932 10931 10930 10930 10929 10928 10927 10927 10926 10926 10926 10926 10926 10926 10927 10927 10927 10927 10928 10928 10929 10929 10930 10931 10933 10935 10937 10939 10942 10945 10948 10949 10953 10958 10962 10966 10970 10974 10978 10982 10985 10988 10992 10998 11002 11005 11007 11010 11013 11016 11020 11023 11026 11029 11031 11033 11033 11034 11036 11037 11038 11040 11041 11042 11042 11041 11041 11042 11043 11043 11044 11043 11042 11041 11040 11038 11037 11035 11033 11031 11030 11028 11025 11022 11020 11017
10931 10930 10929 10928 10927 10926 10926 10925 10924 10924 10923 10922 10922 10922 10922 10922 10923 10923 10923 10924 10924 10925 10925 10926 10927 10927 10929 10931 10933 10935 10937 10940 10943 10945 10949 10954 10957 10962 10966 10969 10974 10977 10981 10986 10991 10996 10998 11001 11004 11008 11011 11014 11018 11021 11025 11028 11028 11029 11030 11032 11034 11036 11038 11040 11041 11041 11041 11041 11041 11041 11042 11042 11043 11043 11042 11041 11040 11039 11038 11036 11034 11033 11031 11029 11027 11024 11022 11020
10928 10927 10925 10924 10923 10922 10922 10921 10921 10920 10920 10919 10918 10918 10918 10918 10918 10918 10919 10920 10920 10920 10921 10922 10923 10924 10925 10926 10928 10930 10934 10936 10937 10940 10945 10949 10953 10957 10961 10965 10969 10973 10978 10983 10988 10992 10994 10997 11001 11005 11009 11013 11016 11020 11023 11025 11025 11027 11029 11031 11033 11036 11038 11039 11040 11040 11040 11041 11041 11041 11041 11042 11042 11043 11043 11041 11041 11040 11038 11037 11035 11034 11033 11031 11029 11026 11024 11022
10925 10923 10922 10921 10920 10919 10918 10917 10916 10916 10916 10915 10914 10914 10913 10914 10913 10914 10914 10915 10915 10916 10917 10918 10919 10920 10921 10922 10924 10926 10930 10931 10931 10936 10940 10944 10949 10952 10956 10960 10965 10970 10975 10980 10984 10988 10991 10994 10999 11003 11007 11011 11015 11018 11021 11023 11024 11027 11028 11030 11032 11035 11037 11038 11038 11039 11039 11040 11040 11040 11041 11041 11042 11043 11042 11041 11041 11040 11039 11038 11037 11035 11034 11032 11031 11028 11026 11024
10921 10920 10918 10917 10916 10915 10914 10913 10912 10911 10910 10910 10910 10909 10909 10908 10908 10908 10908 10909 10910 10911 10912 10913 10914 10915 10916 10918 10919 10921 10925 10925 10927 10932 10935 10940 10945 10948 10950 10955 10961 10965 10971 10976 10980 10985 10988 10992 10996 11000 11004 11009 11013 11016 11019 11021 11024 11025 11026 11028 11031 11033 11035 11036 11037 11038 11039 11039 11039 11039 11040 11041 11042 11042 11042 11042 11041 11040 11039 11038 11037 11036 11035 11034 11032 11030 11028 11026
10917 10916 10914 10913 10912 10910 10909 10908 10907 10906 10905 10904 10904 10904 10903 10903 10902 10902 10902 10903 10904 10905 10906 10907 10908 10910 10911 10914 10914 10917 10920 10920 10923 10927 10930 10935 10940 10943 10945 10950 10956 10961 10967 10972 10977 10981 10984 10989 10993 10997 11002 11007 11010 11013 11017 11021 11023 11023 11025 11026 11029 11032 11034 11035 11036 11037 11038 11038 11038 11038 11039 11039 11040 11041 11041 11041 11041 11040 11040 11039 11038 11037 11036 11035 11033 11031 11030 11028
10912 10911 10910 10909 10907 10905 10903 10902 10901 10900 10899 10898 10897 10897 10897 10896 10896 10895 10895 10896 10897 10898 10899 10900 10902 10903 10905 10908 10909 10914 10916 10915 10919 10922 10925 10931 10934 10937 10941 10945 10951 10956 10963 10969 10973 10976 10980 10985 10990 10994 10999 11005 11008 11011 11016 11019 11021 11023 11025 11026 11028 11030 11032 11033 11035 11036 11036 11036 11036 11036 11037 11038 11039 11040 11040 11040 11041 11041 11040 11039 11038 11037 11036 11036 11034 11033 11032 11030
10908 10907 10906 10904 10903 10900 10898 10896 10895 10894 10892 10891 10890 10889 10889 10889 10888 10888 10887 10888 10889 10891 10892 10893 10895 10896 10899 10901 10904 10911 10911 10910 10914 10916 10920 10925 10928 10931 10936 10941 10946 10951 10959 10964 10968 10972 10976 10982 10986 10990 10996 11000 11004 11008 11013 11016 11016 11020 11023 11025 11027 11029 11030 11032 11034 11035 11035 11035 11035 11035 11035 11036 11038 11039 11039 11040 11040 11040 11040 11040 11039 11038 11037 11036 11035 11034 11033 11031
10904 10902 10901 10900 10897 10895 10893 10890 10889 10887 10885 10883 10882 10881 10880 10880 10880 10879 10879 10879 10881 10882 10884 10885 10887 10889 10892 10894 10900 10906 10904 10905 10908 10910 10915 10919 10922 10926 10931 10936 10941 10947 10953 10959 10964 10968 10972 10977 10982 10987 10993 10996 11000 11005 11010 11012 11014 11017 11022 11025 11026 11027 11029 11031 11033 11034 11033 11034 11035 11035 11035 11036 11037 11038 11039 11039 11039 11040 11040 11040 11040 11039 11037 11037 11036 11035 11034 11033
10899 10897 10896 10894 10892 10889 10886 10883 10881 10879 10877 10874 10872 10871 10870 10869 10869 10869 10870 10870 10871 10873 10875 10876 10878 10881 10883 10887 10895 10898 10896 10900 10903 10905 10909 10913 10916 10921 10926 10931 10936 10942 10948 10954 10959 10963 10967 10972 10977 10983 10989 10992 10996 11001 11006 11010 11013 11017 11022 11024 11025 11025 11027 11029 11031 11033 11033 11033 11034 11035 11036 11035 11035 11037 11038 11038 11039 11039 11039 11040 11040 11039 11038 11037 11037 11036 11035 11035
10894 10892 10890 10888 10885 10882 10879 10876 10873 10870 10867 10865 10862 10860 10859 10858 10857 10858 10858 10859 10861 10862 10864 10867 10869 10871 10875 10881 10887 10887 10889 10895 10897 10899 10904 10907 10911 10915 10920 10926 10930 10936 10942 10948 10953 10957 10962 10967 10972 10978 10984 10988 10992 10997 11003 11007 11011 11017 11021 11022 11022 11023 11026 11028 11029 11031 11032 11032 11033 11034 11035 11034 11034 11036 11038 11038 11039 11039 11039 11040 11040 11040 11039 11038 11037 11037 11036 11036
10889 10887 10884 10881 10878 10875 10871 10868 10864 10861 10857 10854 10851 10849 10847 10845 10845 10845 10846 10847 10849 10851 10853 10856 10859 10862 10866 10873 10876 10878 10883 10888 10890 10894 10898 10901 10905 10909 10914 10919 10925 10930 10936 10942 10947 10951 10956 10961 10966 10972 10978 10982 10987 10994 10999 11004 11009 11014 11018 11018 11018 11020 11023 11026 11027 11029 11030 11031 11032 11034 11034 11034 11034 11035 11037 11038 11039 11039 11038 11040 11040 11040 11039 11038 11038 11037 11037 11036
10883 10881 10878 10874 10871 10867 10863 10859 10855 10851 10846 10843 10839 10836 10834 10832 10831 10831 10832 10834 10836 10838 10842 10845 10849 10852 10857 10862 10867 10871 10875 10879 10884 10888 10891 10895 10899 10903 10908 10913 10919 10924 10929 10936 10940 10945 10950 10955 10960 10967 10973 10978 10984 10990 10995 11000 11005 11009 11013 11014 11015 11017 11019 11022 11023 11026 11028 11029 11030 11032 11033 11034 11034 11035 11037 11038 11038 11038 11038 11040 11040 11040 11039 11039 11038 11037 11037 11037
10878 10875 10871 10868 10864 10859 10854 10850 10845 10840 10835 10831 10826 10823 10820 10818 10817 10817 10817 10819 10822 10825 10829 10833 10837 10842 10847 10852 10857 10861 10866 10872 10877 10881 10885 10889 10892 10897 10901 10906 10912 10918 10923 10929 10935 10940 10944 10950 10957 10964 10969 10974 10980 10986 10991 10997 11001 11005 11009 11011 11013 11014 11015 11018 11021 11023 11025 11026 11027 11030 11031 11032 11034 11036 11036 11037 11037 11037 11038 11039 11040 11040 11039 11039 11038 11037 11037 11037
10872 10868 10865 10860 10856 10850 10845 10840 10834 10829 10824 10818 10813 10808 10805 10802 10801 10801 10802 10804 10807 10812 10816 10821 10826 10830 10836 10841 10846 10853 10859 10864 10868 10872 10878 10882 10886 10890 10894 10899 10905 10911 10917 10923 10930 10935 10938 10945 10951 10956 10963 10970 10976 10982 10988 10993 10996 11001 11005 11007 11009 11011 11013 11016 11018 11020 11022 11024 11026 11028 11030 11031 11033 11035 11036 11036 11036 11037 11037 11038 11039 11040 11039 11039 11038 11038 11038 11038
10866 10862 10858 10853 10848 10841 10835 10829 10823 10817 10811 10804 10798 10793 10789 10786 10784 10784 10786 10788 10792 10797 10802 10808 10813 10819 10826 10832 10838 10845 10850 10854 10859 10864 10869 10874 10879 10883 10887 10893 10898 10904 10911 10917 10924 10929 10933 10938 10942 10950 10960 10967 10972 10977 10983 10988 10992 10998 11001 11003 11006 11008 11010 11014 11016 11018 11021 11024 11025 11027 11029 11031 11032 11034 11035 11035 11035 11036 11037 11038 11039 11039 11039 11039 11038 11038 11038 11038
10860 10856 10851 10845 10839 10833 10826 10819 10812 10805 10798 10791 10784 10778 10773 10769 10767 10768 10769 10772 10776 10782 10788 10794 10801 10808 10816 10822 10827 10833 10839 10845 10851 10856 10861 10867 10871 10876 10881 10885 10891 10898 10904 10911 10918 10923 10927 10931 10936 10946 10956 10961 10966 10972 10977 10983 10988 10994 10996 10998 11003 11006 11008 11012 11015 11017 11020 11023 11024 11026 11028 11030 11032 11033 11034 11034 11033 11034 11036 11037 11038 11039 11039 11039 11038 11038 11038 11038
10854 10849 10844 10838 10831 10824 10817 10809 10802 10794 10786 10778 10770 10763 10758 10754 10753 10753 10754 10757 10761 10766 10773 10780 10788 10796 10803 10808 10815 10822 10829 10836 10843 10848 10854 10859 10863 10869 10874 10878 10884 10891 10898 10905 10912 10917 10921 10926 10932 10939 10946 10952 10958 10965 10972 10978 10983 10989 10991 10993 10999 11003 11005 11010 11013 11014 11018 11022 11023 11024 11027 11029 11031 11032 11032 11033 11032 11032 11034 11036 11037 11038 11038 11038 11038 11038 11038 11038
10848 10843 10837 10830 10824 10817 10809 10801 10792 10784 10775 10766 10758 10751 10746 10743 10741 10741 10742 10744 10747 10753 10759 10767 10775 10783 10789 10797 10805 10812 10820 10827 10834 10840 10844 10849 10855 10861 10866 10872 10878 10883 10891 10898 10904 10911 10916 10922 10926 10930 10937 10945 10953 10962 10968 10972 10978 10984 10986 10989 10994 10998 11002 11006 11009 11011 11016 11020 11020 11022 11026 11028 11030 11031 11031 11031 11030 11031 11033 11034 11035 11036 11037 11037 11037 11038 11038 11038
10842 10836 10830 10824 10817 10809 10801 10792 10783 10774 10765 10756 10748 10742 10737 10734 10732 10732 10733 10734 10737 10741 10747 10754 10762 10770 10778 10786 10795 10802 10810 10817 10824 10829 10835 10841 10847 10853 10860 10866 10871 10876 10884 10891 10899 10905 10909 10915 10918 10922 10931 10941 10950 10956 10961 10967 10974 10978 10980 10984 10988 10993 10998 11002 11006 11009 11012 11016 11016 11019 11024 11026 11028 11029 11029 11030 11030 11030 11031 11032 11033 11035 11036 11037 11037 11037 11037 11037
10837 10831 10824 10817 10810 10802 10793 10784 10774 10765 10756 10747 10740 10735 10731 10727 10726 10725 10725 10727 10729 10732 10737 10743 10751 10759 10767 10776 10784 10791 10799 10807 10813 10820 10827 10833 10838 10846 10854 10859 10863 10869 10877 10885 10891 10895 10901 10906 10908 10915 10928 10936 10942 10947 10954 10963 10967 10969 10974 10979 10984 10989 10994 10998 11003 11006 11008 11011 11013 11017 11021 11023 11025 11026 11026 11029 11029 11029 11029 11030 11031 11033 11035 11036 11036 11036 11036 11037
10832 10826 10819 10811 10804 10795 10786 10777 10768 10758 10748 10740 10734 10729 10725 10722 10720 10719 10720 10721 10722 10725 10729 10734 10741 10749 10757 10766 10773 10780 10789 10797 10804 10812 10819 10826 10833 10840 10844 10849 10855 10862 10871 10877 10881 10887 10894 10897 10900 10912 10923 10928 10934 10943 10952 10958 10960 10964 10970 10975 10980 10986 10990 10992 10995 10999 11003 11007 11009 11013 11018 11019 11021 11022 11024 11026 11026 11027 11028 11028 11028 11031 11033 11034 11035 11035 11036 11036
10827 10821 10814 10806 10798 10789 10780 10770 10761 10751 10742 10735 10729 10725 10722 10719 10716 10715 10715 10715 10717 10720 10723 10728 10733 10739 10747 10755 10762 10771 10781 10788 10796 10804 10812 10820 10825 10829 10835 10843 10850 10857 10863 10866 10872 10880 10886 10889 10900 10912 10916 10921 10931 10939 10946 10951 10954 10960 10964 10968 10975 10982 10986 10989 10990 10992 10997 11002 11005 11009 11013 11015 11017 11019 11021 11022 11023 11024 11026 11026 11026 11029 11031 11032 11034 11034 11035 11036
10823 10816 10809 10801 10793 10784 10774 10763 10754 10745 10737 10730 10725 10722 10718 10716 10713 10712 10711 10711 10713 10715 10718 10722 10726 10732 10738 10745 10753 10763 10770 10778 10788 10797 10804 10811 10816 10824 10833 10840 10844 10850 10854 10859 10867 10873 10878 10888 10900 10904 10906 10916 10926 10931 10937 10943 10947 10952 10956 10962 10971 10978 10984 10987 10987 10989 10993 10997 11001 11006 11009 11012 11015 11016 11017 11019 11020 11022 11024 11025 11025 11026 11029 11031 11032 11033 11033 11034
10818 10812 10804 10797 10788 10779 10769 10759 10750 10740 10733 10727 10722 10719 10715 10713 10711 10709 10709 10709 10710 10711 10714 10717 10721 10725 10731 10737 10745 10753 10761 10772 10780 10787 10795 10802 10809 10817 10823 10827 10835 10842 10848 10856 10861 10865 10876 10890 10894 10894 10901 10913 10920 10924 10931 10937 10941 10946 10953 10962 10969 10974 10979 10983 10985 10987 10989 10992 10998 11004 11007 11010 11013 11013 11015 11016 11018 11020 11021 11023 11023 11024 11027 11029 11030 11031 11032 11033
10814 10807 10800 10793 10784 10775 10766 10756 10746 10737 10730 10724 10720 10717 10713 10711 10709 10708 10707 10706 10707 10708 10711 10713 10716 10720 10725 10731 10738 10747 10756 10764 10771 10780 10788 10795 10802 10807 10812 10820 10830 10837 10844 10849 10851 10860 10877 10883 10882 10887 10897 10906 10911 10918 10926 10930 10935 10944 10953 10960 10965 10970 10975 10979 10981 10984 10986 10990 10996 11000 11004 11007 11010 11011 11013 11014 11016 11017 11018 11020 11020 11021 11024 11026 11027 11029 11030 11031
10810 10803 10796 10789 10781 10772 10763 10753 10744 10735 10728 10722 10718 10715 10712 10710 10708 10706 10705 10705 10705 10706 10708 10711 10713 10717 10721 10726 10732 10740 10747 10755 10765 10775 10782 10789 10795 10801 10810 10818 10825 10832 10837 10840 10844 10858 10868 10866 10870 10881 10890 10897 10902 10911 10919 10923 10931 10944 10950 10953 10958 10965 10969 10972 10977 10982 10984 10988 10993 10996 10999 11004 11006 11007 11010 11011 11011 11013 11015 11017 11018 11020 11022 11023 11025 11027 11028 11029
10806 10800 10793 10785 10778 10769 10760 10751 10742 10733 10726 10720 10717 10713 10711 10709 10707 10705 10704 10704 10704 10705 10707 10708 10710 10714 10717 10721 10727 10733 10741 10751 10761 10768 10775 10784 10790 10797 10805 10811 10819 10826 10829 10831 10840 10855 10862 10863 10873 10882 10886 10892 10897 10906 10914 10918 10930 10941 10942 10945 10953 10958 10962 10967 10974 10978 10980 10985 10989 10991 10995 10999 11001 11002 11005 11006 11007 11009 11012 11013 11015 11018 11020 11021 11023 11025 11026 11027
10803 10797 10790 10782 10775 10767 10758 10749 10740 10731 10724 10719 10716 10712 10710 10708 10707 10705 10704 10703 10703 10704 10705 10706 10708 10710 10713 10718 10722 10728 10737 10746 10753 10760 10768 10775 10781 10791 10798 10804 10811 10816 10817 10824 10838 10853 10858 10861 10868 10873 10879 10887 10895 10906 10913 10917 10929 10933 10931 10939 10947 10951 10957 10962 10967 10972 10976 10981 10985 10988 10992 10996 10997 10998 11000 11002 11003 11005 11008 11010 11013 11015 11017 11018 11021 11022 11024 11025
10801 10794 10788 10780 10772 10765 10756 10747 10739 10730 10723 10718 10715 10712 10709 10707 10706 10705 10704 10703 10702 10703 10703 10705 10706 10708 10711 10715 10719 10725 10732 10738 10745 10752 10760 10767 10775 10783 10788 10793 10799 10802 10807 10819 10834 10845 10845 10846 10854 10862 10870 10881 10891 10900 10902 10908 10920 10921 10923 10934 10940 10945 10951 10955 10961 10967 10971 10976 10981 10986 10990 10992 10992 10993 10995 10997 10999 11002 11004 11007 11009 11012 11014 11016 11018 11020 11021 11022
10798 10792 10785 10778 10770 10763 10754 10746 10737 10729 10722 10717 10714 10712 10709 10707 10705 10704 10703 10702 10702 10702 10703 10704 10705 10707 10709 10712 10716 10722 10727 10732 10738 10745 10753 10762 10770 10775 10780 10786 10793 10799 10808 10817 10827 10833 10832 10837 10849 10857 10865 10875 10882 10886 10889 10899 10908 10910 10917 10928 10933 10939 10945 10949 10956 10961 10964 10968 10974 10979 10982 10984 10985 10987 10991 10994 10995 10998 11001 11004 11006 11009 11011 11013 11015 11016 11018 11019
10796 10790 10783 10776 10768 10761 10753 10745 10736 10728 10721 10716 10713 10711 10709 10707 10705 10704 10703 10703 10702 10702 10702 10703 10704 10705 10707 10710 10714 10718 10722 10728 10735 10742 10749 10756 10762 10768 10774 10782 10790 10797 10804 10811 10819 10822 10825 10834 10843 10850 10858 10866 10871 10876 10883 10895 10902 10905 10913 10921 10926 10933 10938 10943 10948 10952 10955 10960 10966 10970 10973 10976 10979 10982 10987 10990 10992 10995 10998 11001 11003 11006 11008 11010 11012 11013 11015 11017
10793 10788 10781 10774 10767 10759 10751 10743 10735 10727 10719 10714 10711 10710 10708 10706 10705 10704 10703 10703 10702 10702 10702 10702 10703 10704 10706 10709 10712 10716 10721 10727 10733 10739 10745 10750 10755 10760 10765 10772 10779 10783 10790 10801 10809 10816 10821 10827 10833 10840 10848 10855 10862 10868 10877 10890 10896 10898 10906 10914 10919 10925 10930 10935 10940 10944 10950 10955 10962 10967 10969 10973 10975 10979 10983 10985 10987 10992 10994 10997 11000 11001 11004 11006 11008 11009 11012 11014
10791 10786 10779 10772 10765 10758 10750 10742 10734 10726 10719 10713 10710 10708 10706 10705 10704 10704 10703 10703 10702 10702 10702 10702 10703 10704 10705 10707 10710 10714 10718 10724 10729 10734 10738 10743 10747 10752 10758 10765 10770 10775 10785 10794 10800 10808 10813 10818 10830 10840 10846 10853 10858 10863 10874 10883 10885 10889 10900 10908 10911 10916 10921 10927 10932 10939 10945 10951 10957 10962 10965 10968 10970 10973 10978 10979 10982 10986 10989 10993 10996 10997 11000 11003 11004 11006 11008 11011
10789 10783 10777 10771 10764 10757 10750 10742 10733 10726 10718 10713 10709 10706 10705 10704 10704 10703 10703 10702 10702 10702 10702 10702 10702 10703 10704 10706 10708 10711 10715 10720 10725 10729 10732 10736 10742 10748 10757 10765 10771 10779 10788 10792 10796 10805 10807 10814 10829 10835 10839 10846 10849 10856 10867 10871 10876 10887 10895 10897 10899 10906 10915 10922 10929 10936 10940 10945 10950 10953 10957 10961 10963 10967 10972 10975 10978 10981 10985 10989 10992 10994 10997 10999 11001 11002 11005 11007
10786 10781 10775 10769 10762 10755 10749 10741 10733 10725 10718 10712 10708 10705 10704 10703 10702 10702 10702 10701 10701 10701 10701 10701 10701 10702 10703 10704 10706 10709 10713 10716 10720 10722 10726 10731 10737 10744 10753 10761 10768 10775 10781 10784 10792 10802 10805 10815 10827 10829 10833 10838 10841 10850 10859 10864 10874 10883 10885 10888 10895 10903 10911 10918 10925 10930 10933 10938 10942 10946 10951 10954 10957 10961 10967 10972 10974 10975 10979 10984 10988 10991 10993 10995 10997 10999 11002 11004
10784 10779 10773 10767 10761 10754 10747 10741 10733 10725 10717 10711 10707 10704 10702 10701 10701 10700 10700 10700 10700 10700 10700 10700 10700 10700 10702 10703 10705 10707 10709 10711 10714 10717 10721 10725 10730 10738 10747 10755 10760 10766 10772 10778 10787 10796 10800 10809 10819 10822 10826 10832 10837 10846 10853 10858 10867 10874 10881 10890 10895 10899 10906 10911 10916 10921 10925 10931 10935 10940 10944 10946 10950 10955 10960 10965 10968 10969 10974 10979 10984 10987 10989 10992 10995 10997 10999 11000
10782 10777 10772 10765 10759 10753 10746 10740 10733 10725 10718 10711 10706 10703 10701 10700 10699 10699 10698 10698 10698 10699 10699 10699 10699 10700 10701 10702 10703 10705 10706 10707 10710 10712 10716 10720 10727 10735 10743 10749 10755 10761 10768 10775 10783 10791 10795 10801 10810 10814 10819 10828 10835 10841 10847 10852 10859 10868 10875 10880 10881 10889 10898 10904 10910 10915 10920 10925 10929 10933 10935 10937 10945 10951 10954 10958 10961 10964 10969 10975 10981 10985 10987 10990 10993 10995 10997 10997
10780 10775 10770 10764 10758 10751 10745 10739 10732 10725 10718 10712 10706 10702 10700 10698 10697 10697 10697 10696 10696 10697 10697 10697 10698 10699 10699 10700 10702 10703 10703 10703 10706 10708 10712 10717 10723 10730 10738 10744 10751 10757 10764 10771 10777 10783 10788 10794 10803 10808 10815 10823 10827 10831 10838 10841 10848 10859 10865 10868 10874 10883 10889 10893 10900 10906 10911 10918 10922 10924 10927 10931 10939 10944 10946 10952 10956 10958 10964 10971 10980 10985 10983 10985 10989 10992 10991 10993
10778 10773 10767 10762 10756 10750 10744 10738 10732 10725 10718 10712 10706 10702 10698 10696 10695 10695 10694 10694 10694 10694 10694 10695 10696 10697 10698 10699 10700 10700 10699 10700 10703 10704 10708 10713 10719 10726 10733 10740 10746 10752 10758 10762 10767 10775 10782 10789 10798 10805 10810 10813 10814 10820 10827 10832 10844 10855 10860 10864 10871 10876 10880 10886 10892 10897 10902 10907 10911 10914 10920 10927 10933 10936 10941 10946 10949 10952 10958 10966 10977 10981 10976 10975 10983 10987 10987 10990
10776 10771 10766 10760 10755 10749 10743 10737 10731 10725 10719 10713 10706 10701 10698 10695 10693 10692 10692 10692 10692 10691 10692 10692 10693 10694 10695 10697 10698 10697 10696 10697 10699 10701 10706 10712 10717 10723 10730 10736 10742 10747 10751 10755 10763 10773 10778 10784 10793 10799 10801 10801 10807 10817 10826 10835 10846 10851 10854 10861 10868 10871 10875 10880 10885 10890 10894 10897 10902 10907 10913 10920 10924 10927 10932 10937 10940 10945 10952 10959 10969 10975 10969 10967 10975 10981 10985 10989
10774 10769 10764 10759 10753 10748 10742 10736 10730 10724 10719 10713 10707 10701 10697 10694 10692 10690 10690 10689 10689 10689 10689 10690 10690 10691 10692 10694 10695 10695 10694 10695 10696 10699 10703 10708 10712 10717 10724 10731 10737 10742 10745 10751 10759 10765 10769 10776 10785 10790 10791 10796 10807 10818 10824 10832 10839 10842 10848 10856 10859 10861 10864 10869 10876 10881 10884 10890 10897 10901 10906 10911 10917 10921 10925 10929 10933 10938 10945 10952 10960 10966 10963 10961 10966 10974 10980 10986
10772 10767 10763 10758 10752 10747 10742 10736 10730 10724 10718 10712 10706 10701 10697 10693 10691 10689 10688 10687 10687 10686 10687 10687 10687 10688 10689 10690 10691 10692 10692 10692 10693 10696 10699 10703 10707 10711 10718 10724 10730 10735 10739 10745 10752 10756 10762 10770 10777 10782 10786 10792 10802 10810 10813 10820 10828 10835 10840 10843 10846 10851 10858 10865 10872 10875 10880 10889 10895 10896 10900 10907 10912 10916 10920 10925 10929 10933 10939 10945 10951 10957 10958 10957 10960 10967 10974 10979
10770 10765 10761 10756 10751 10746 10741 10735 10729 10723 10717 10711 10705 10700 10696 10692 10690 10688 10686 10685 10684 10684 10684 10684 10684 10685 10685 10686 10687 10688 10688 10688 10690 10693 10696 10698 10702 10706 10712 10718 10723 10728 10733 10739 10746 10752 10759 10766 10771 10777 10782 10787 10796 10802 10805 10810 10817 10822 10824 10829 10840 10851 10857 10861 10864 10869 10876 10884 10888 10889 10894 10902 10906 10908 10914 10920 10924 10928 10933 10939 10944 10948 10951 10952 10955 10961 10967 10972
10767 10763 10759 10755 10750 10745 10740 10734 10729 10723 10717 10711 10705 10699 10695 10691 10688 10686 10685 10683 10682 10681 10681 10681 10681 10682 10682 10683 10683 10684 10684 10685 10686 10688 10691 10694 10697 10701 10706 10711 10716 10721 10727 10733 10740 10747 10754 10760 10765 10771 10777 10783 10792 10798 10801 10805 10811 10813 10815 10824 10837 10844 10846 10851 10856 10862 10867 10871 10875 10878 10884 10892 10897 10900 10907 10914 10918 10923 10926 10930 10935 10940 10944 10947 10950 10956 10962 10968
10765 10761 10757 10753 10748 10743 10738 10733 10728 10722 10717 10711 10705 10699 10694 10690 10687 10685 10683 10681 10680 10679 10678 10678 10678 10679 10679 10679 10679 10680 10680 10680 10681 10683 10686 10688 10691 10694 10699 10704 10710 10715 10721 10726 10733 10741 10747 10752 10758 10764 10770 10778 10785 10791 10797 10802 10807 10812 10815 10824 10833 10833 10836 10844 10848 10850 10855 10861 10867 10871 10876 10883 10888 10893 10901 10907 10912 10916 10918 10921 10926 10930 10935 10940 10944 10950 10957 10962
10763 10759 10755 10751 10746 10741 10736 10731 10727 10722 10716 10711 10705 10699 10694 10689 10686 10683 10681 10680 10678 10677 10676 10675 10675 10675 10675 10675 10675 10675 10675 10676 10677 10678 10680 10683 10686 10690 10694 10699 10704 10709 10714 10720 10727 10733 10738 10743 10750 10755 10762 10770 10776 10783 10792 10797 10801 10806 10813 10820 10824 10824 10829 10836 10837 10841 10850 10857 10861 10864 10869 10875 10881 10889 10898 10900 10902 10906 10909 10911 10916 10920 10925 10931 10936 10942 10947 10953
10760 10756 10753 10749 10745 10740 10735 10730 10725 10720 10715 10710 10705 10699 10694 10689 10685 10682 10679 10678 10676 10675 10674 10673 10672 10672 10672 10672 10671 10671 10670 10671 10671 10672 10674 10677 10681 10685 10688 10692 10696 10701 10707 10713 10719 10723 10728 10734 10741 10747 10754 10762 10768 10774 10783 10789 10792 10797 10805 10811 10813 10815 10821 10825 10828 10837 10846 10850 10851 10854 10861 10868 10876 10884 10889 10888 10891 10897 10901 10902 10906 10911 10917 10922 10927 10932 10937 10943
10758 10754 10750 10747 10743 10738 10734 10729 10724 10719 10714 10709 10704 10699 10693 10688 10684 10680 10678 10676 10674 10673 10672 10671 10670 10669 10669 10668 10668 10667 10666 10666 10666 10667 10669 10672 10675 10678 10681 10685 10689 10695 10701 10707 10711 10714 10719 10726 10733 10739 10745 10750 10757 10763 10770 10778 10783 10787 10794 10799 10801 10807 10813 10816 10822 10831 10836 10839 10842 10847 10854 10862 10869 10876 10877 10875 10879 10887 10891 10893 10897 10903 10908 10914 10919 10924 10928 10933
10756 10752 10748 10744 10741 10737 10732 10727 10723 10718 10713 10708 10703 10698 10693 10687 10683 10679 10676 10674 10672 10671 10670 10668 10668 10667 10666 10665 10665 10664 10663 10662 10662 10662 10664 10666 10669 10672 10676 10680 10685 10691 10696 10700 10704 10708 10712 10718 10724 10729 10733 10739 10747 10754 10762 10771 10774 10775 10781 10787 10791 10798 10804 10811 10819 10826 10829 10833 10839 10846 10854 10858 10861 10864 10865 10865 10869 10876 10883 10888 10891 10895 10900 10905 10910 10914 10918 10922